Home > Weather > Uelzen > Past weeks

Flag for Germany Past Weather in Uelzen, Lower Saxony, Germany — Yesterday and Last 2 Weeks

Now
55 °F

Passing clouds.


Feels Like: 53 °F
Forecast: 54 / 69 °F
Wind: 10 mph from West

Location: Fassberg

Current Time: Jun 26, 2016 at 4:50:09 AM

Latest Report: Jun 26, 2016 at 3:48 AM


Visibility: N/A

Pressure: 29.95 "Hg

Humidity: 94%

Dew Point: 54 °F

Location of UelzenLocation

Past Weather in Uelzen — Graph

°F

Uelzen Temperature Yesterday

Maximum temperature yesterday: 72 °F (at 4:20 PM)
Minimum temperature yesterday: 55 °F (at 11:46 PM)
Average temperature yesterday: 65 °F

High & Low Weather Summary for the Past Weeks

 TemperatureHumidityPressure
High90 °F (Jun 23, 3:20 PM)100% (Jun 14, 2:20 AM)30.24 "Hg (Jun 14, 2:20 AM)
Low41 °F (Jun 20, 5:20 AM)38% (Jun 11, 5:20 PM)29.45 "Hg (Jun 14, 3:20 PM)
Average62 °F78%29.86 "Hg
* Reported Jun 11 3:20 AM — Jun 26 3:20 AM, Uelzen, Weather by CustomWeather, © 2016

Note: Actual official high and low records may vary slightly from our data, if they occured in-between our weather recording intervals... More about our weather records

Advertising

Uelzen Weather History for the Previous 24 Hours

Scroll right to see more
 ConditionsComfort  
Time TempWeatherWind HumidityBarometerVisibility
3:20 AM
Sun, Jun 26
55 °FPassing clouds.10 mph94%29.95 "HgN/A
2:20 AM55 °FPassing clouds.13 mph94%29.92 "HgN/A
1:20 AM55 °FPassing clouds.12 mph94%29.92 "Hg6 mi
12:20 AM55 °FPartly cloudy.9 mph100%29.92 "Hg5 mi
11:46 PM
Sat, Jun 25
55 °FDrizzle. Fog.13 mph100%29.89 "Hg2 mi
11:20 PM57 °FPartly cloudy.13 mph94%29.89 "Hg4 mi
10:20 PM59 °FLight rain. Broken clouds.18 mph94%29.86 "Hg5 mi
10:03 PM61 °FDrizzle. Broken clouds.16 mph94%29.83 "Hg3 mi
9:20 PM64 °FSprinkles. Partly sunny.10 mph94%29.83 "Hg3 mi
8:20 PM64 °FFog.12 mph94%29.83 "Hg3 mi
7:20 PM66 °FBroken clouds.9 mph94%29.83 "Hg5 mi
6:20 PM68 °FPartly sunny.6 mph88%29.83 "HgN/A
5:20 PM70 °FBroken clouds.9 mph83%29.80 "HgN/A
4:20 PM72 °FScattered clouds.10 mph78%29.83 "HgN/A
3:20 PM66 °FScattered clouds.8 mph94%29.83 "Hg5 mi
2:20 PM66 °FThunderstorms. Broken clouds.10 mph94%29.89 "Hg5 mi
1:20 PM66 °FThunderstorms. Broken clouds.15 mph94%29.86 "Hg5 mi
12:46 PM70 °FThundershowers. Broken clouds.10 mph83%29.89 "HgN/A
12:20 PM68 °FPartly sunny.10 mph88%29.89 "HgN/A
11:20 AM68 °FPartly sunny.14 mph88%29.92 "Hg5 mi
10:20 AM66 °FFog.12 mph94%29.92 "Hg2 mi
10:00 AM64 °FThundershowers. Fog.12 mph100%29.92 "Hg1 mi
9:20 AM64 °FDrizzle. Fog.7 mph94%29.98 "Hg2 mi
8:20 AM64 °FFog.6 mph94%29.95 "Hg2 mi
8:03 AM64 °FThundershowers. Fog.7 mph94%29.95 "Hg2 mi
7:20 AM64 °FThunderstorms. Fog.10 mph94%29.92 "Hg2 mi
6:20 AM64 °FThundershowers. Fog.8 mph94%29.95 "Hg1 mi
5:20 AM64 °FFog.8 mph94%29.95 "Hg2 mi
5:04 AM64 °FFog.8 mph94%29.95 "Hg2 mi
4:20 AM64 °FThundershowers. Fog.7 mph94%29.98 "Hg1 mi
Weather by CustomWeather, © 2016

See weather overviewHow to use our weather pages